Regional Weather Roundup
Issued by NWS

Home | Current Version | Previous Version | Graphics & Text | Print | Product List | Glossary On
Versions: 1 2 3 4 5 6 7 8 9 10 11 12 13 14 15 16 17 18 19 20 21 22 23 24 25 26 27 28 29 30 31 32 33 34 35 36 37 38 39 40 41 42 43 44 45 46 47 48 49
000
ASUS45 KBOI 222110
RWRID
WEATHER ROUNDUP FOR IDAHO
NATIONAL WEATHER SERVICE BOISE ID
200 PM MST MON DEC 22 2014

NOTE: "FAIR" INDICATES FEW OR NO CLOUDS BELOW 12000 FEET
WITH NO SIGNIFICANT WEATHER AND/OR OBSTRUCTIONS TO VISIBILITY

IDZ012-014-222200-
SOUTHWEST IDAHO


CITY           SKY/WX    TMP DP  RH WIND       PRES   REMARKS
BOISE          SUNNY     47  31  53 NW25G31   30.17S
CALDWELL       SUNNY     48  28  46 W21G28    30.22R
MOUNTAIN HOME  MOSUNNY   47  33  57 NW28G36   30.17R
$$

IDZ016-017-222200-
SOUTHCENTRAL IDAHO


CITY           SKY/WX    TMP DP  RH WIND       PRES   REMARKS
BURLEY         LGT RAIN  42  32  67 W30G47    30.02R
JEROME         PTSUNNY   41  35  79 W28G40    30.08R
TWIN FALLS     MOSUNNY   45  34  65 W31G45    30.08S
$$

IDZ019>023-222200-
SOUTHEAST IDAHO


CITY           SKY/WX    TMP DP  RH WIND       PRES   REMARKS
IDAHO FALLS    PTSUNNY   40  26  57 NW14      29.96R WCI  32
POCATELLO      MOSUNNY   44  35  70 W14       29.99F
REXBURG        CLOUDY    38  21  50 NW13G22   29.96R WCI  30
$$

IDZ006-010-011-018-031-032-222200-
CENTRAL IDAHO MOUNTAINS


CITY           SKY/WX    TMP DP  RH WIND       PRES   REMARKS
MCCALL         MOSUNNY   34  26  72 W9        30.12S WCI  27
HAILEY         MOSUNNY   39  18  41 MISG      30.00R
STANLEY          N/A     32  14  47 NW16G29   30.05  WCI  21
SALMON         PTSUNNY   37  27  65 SW3       30.05R
CHALLIS        FLURRIES  34  24  67 N22G29    30.05R WCI  22
$$

IDZ002-004-006-007-026-222200-
NORTHERN IDAHO


CITY           SKY/WX    TMP DP  RH WIND       PRES   REMARKS
LEWISTON       LGT RAIN  49  31  49 NW13      30.23S
LOWELL           N/A     41  39  93 N5        30.22R
COEUR D`ALENE  SUNNY     45  30  57 SW10      30.15S
MULLAN PASS    CLOUDY    24  22  91 NW8       30.04R WCI  15
$$


USA.gov is the U.S. government's official web portal to all federal, state and local government web resources and services.